Simultaneous Nadir Overpasses (SNOs) Predictions

Prediction of SNOs between METOP-A and NOAA-19 Satellite Orbit:

Table of predicted SNOs for the next 14.0 days since TLE Epoch: 7/30/2014
Index Date (METOP-A) Time (METOP-A) Lat,Lon (METOP-A) SZA (METOP-A ) Date (NOAA-19) Time (NOAA-19) Lat,Lon (NOAA-19) SZA (NOAA-19 ) Distance(km) Time Diff (sec)
1 08/08/2014 23:18:16 -74.47, 6.23 121.48 08/08/2014 23:17:04 -74.46, 4.94 121.44 38.46 72
2 08/09/2014 00:09:01 74.19, 172.85 58.28 08/09/2014 00:07:56 74.20, 172.88 58.30 1.63 65
3 08/09/2014 00:59:43 -74.21, -19.78 121.70 08/09/2014 00:59:02 -74.19, -19.87 121.71 2.94 41
4 08/09/2014 01:50:23 74.17, 147.47 58.28 08/09/2014 01:49:59 74.18, 147.43 58.29 1.18 24
5 08/09/2014 02:41:06 -74.14, -45.29 121.74 08/09/2014 02:41:05 -74.17, -45.31 121.71 3.25 1
6
